Tracking 28790 objects as of 19-Apr-2024
HD Live streaming from Space Station
objects crossing your sky now

ONEWEB-0461

Track ONEWEB-0461 now!
10-day predictions
ONEWEB-0461 is classified as:


NORAD ID: 51649
Int'l Code: 2022-012AD
Perigee: 1,199.2 km
Apogee: 1,202.5 km
Inclination: 87.9 °
Period: 109.3 minutes
Semi major axis: 7571 km
RCS: Unknown
Launch date: February 10, 2022
Source: United Kingdom (UK)
Launch site: FRENCH GUIANA (FRGUI)
Your satellite tracking list
Your tracking list is empty




NASA's NSSDC Master Catalog

Two Line Element Set (TLE):
1 51649U 22012AD  24109.72053674 -.00000023  00000-0 -93287-4 0  9992
2 51649  87.9209 162.9647 0002210  95.9801 264.1583 13.17649090111219
Source of the keplerian elements: AFSPC